{"data":{"norad_id":56834,"epoch":"2026-09-19T19:02:10.813344Z","epoch_age_seconds":178652,"freshness":"STALE","line1":"1 56834U 23079M   26262.79318071  .00000151  00000+0  15011-4 0  9999","line2":"2 56834  43.0028  87.4615 0001631 264.5708  95.4958 15.27577843182616","mean_motion":15.27577843,"eccentricity":0.0001631,"inclination_deg":43.0028,"raan_deg":87.4615,"arg_perigee_deg":264.5708,"mean_anomaly_deg":95.4958,"bstar":1.5011e-5,"rev_number":18261,"period_min":94.266881822009,"perigee_km":481.93649437553,"apogee_km":484.17461538693,"semimajor_km":6861.1925548812,"source":"CELESTRAK","updated_at":"2026-09-21T09:00:33.516619Z"}}